Кибартай

Литва     54°38′19″N   22°46′06″E
темп.,
°C
ветер,
м/с
пор.,
м/с
влажн.,
%
обл.,
%
осадки,
мм/ч
давл.,
гПа
погр.,
м
15 апреля, чт
чт1523:00+3ссв71397100 1.1 1021680
02:00+3ссв71396100 1.5 1020785
05:00+4ссв71396100 0.6 1020715
08:00+4св71384100 1.1 1020690
11:00+5св71380100 0.0 1020691
14:00+7св51174100 0.1 1020830
17:00+7всв51171100 0.0 1020745
20:00+6св41071100 0.0 1020467
16 апреля, пт
пт1623:00+5ссв51285100 0.3 1019843
02:00+5ссв61287100 0.3 1018701
05:00+5ссв61288100 0.1 1017658
08:00+5ссв51193100 1.4 1017605
11:00+6св5993100 0.3 1018550
14:00+8св5890100 0.3 1018572
17:00+9св4885100 0.0 1018800
20:00+8ссв41091100 0.1 1019449
17 апреля, сб
сб1723:00+8св4109396 0.0 1020428
02:00+7ссв41096100 0.0 1019396
05:00+7св3896100 0.0 1020342
08:00+9всв489389 0.1 1021505
11:00+10в378885 0.1 1021650
14:00+14вюв466394 0.3 10211278
17:00+13всв687656 1.3 1021875
20:00+9св399098 1.8 1022199
18 апреля, вс
вс1823:00+9всв4993100 0.0 1022273
02:00+8всв3896100 0.1 1022229
05:00+8всв3797100 0.0 1022246
08:00+8всв2798100 3.9 1021399
11:00+9юв249599 0.5 1022330
14:00+13вюв467143 0.9 10221192
17:00+13юв366794 0.2 10221218
20:00+9в2483100 0.3 102381
19 апреля, пн
пн1923:00+9в349398 0.1 1023119
02:00+9всв3492100 0.2 1023103
05:00+8всв3694100 0.1 1022161
08:00+9всв3790100 0.3 1022243
11:00+13в466564 0.0 1020755
14:00+16в555389 0.0 10181752
17:00+13в6872100 0.4 1017911
20:00+11в5118696 0.9 1017551